| time (UTC) | temp F | wind direction | speed MPH | gust MPH | rain 1hr in | rain 24hr in | rain mn in | humidity % | barometer mb |
| 20260906012301 | 0 | 0.0 | 0.0 | 0.00 | 0.00 | 0.00 | 1014.9 | ||
| 20260906011245 | 88 | 189 | 2.0 | 2.0 | 0.00 | 0.00 | 0.00 | 62 | 1014.8 |
| 20260906010247 | 88 | 158 | 1.0 | 2.0 | 0.00 | 0.00 | 0.00 | 61 | 1014.7 |
| 20260906005250 | 89 | 218 | 2.0 | 3.0 | 0.00 | 0.00 | 0.00 | 60 | 1014.6 |
| 20260906004306 | 89 | 164 | 2.0 | 2.0 | 0.00 | 0.00 | 0.00 | 58 | 1014.6 |
| 20260906003253 | 91 | 154 | 2.0 | 3.0 | 0.00 | 0.00 | 0.00 | 58 | 1014.6 |
| 20260906002255 | 92 | 186 | 1.0 | 2.0 | 0.00 | 0.00 | 0.00 | 55 | 1014.6 |
| 20260906001257 | 92 | 203 | 0.0 | 1.0 | 0.00 | 7.38 | 0.00 | 52 | 1014.6 |
| 20260906000320 | 93 | 0.0 | 0.0 | 0.00 | 7.38 | 0.00 | 52 | 1014.6 | |
| 20260905235306 | 93 | 254 | 1.0 | 2.0 | 0.00 | 7.38 | 0.00 | 52 | 1014.6 |
| 20260905234246 | 93 | 270 | 1.0 | 3.0 | 0.00 | 7.38 | 0.00 | 54 | 1014.6 |
| 20260905233304 | 92 | 232 | 1.0 | 1.0 | 0.00 | 7.38 | 0.00 | 55 | 1014.5 |
| 20260905232305 | 93 | 289 | 2.0 | 4.0 | 0.00 | 7.38 | 0.00 | 54 | 1014.6 |
| 20260905231246 | 94 | 0.0 | 0.0 | 0.00 | 7.38 | 0.00 | 46 | 1014.6 | |
| 20260905230248 | 94 | 0.0 | 0.0 | 0.00 | 7.38 | 0.00 | 46 | 1014.7 | |
| 20260905225251 | 94 | 236 | 1.0 | 1.0 | 0.00 | 7.38 | 0.00 | 47 | 1014.8 |
| 20260905224253 | 92 | 203 | 4.0 | 7.0 | 0.00 | 7.38 | 0.00 | 54 | 1014.9 |
| 20260905223255 | 96 | 192 | 3.0 | 4.0 | 0.00 | 7.38 | 0.00 | 50 | 1014.8 |
| 20260905222251 | 0 | 0.0 | 0.0 | 0.00 | 7.38 | 0.00 | 1014.6 | ||
| 20260905221308 | 98 | 338 | 4.0 | 5.0 | 0.00 | 7.38 | 0.00 | 45 | 1014.5 |
| 20260905220301 | 99 | 140 | 2.0 | 4.0 | 0.00 | 7.38 | 0.00 | 43 | 1014.5 |
| 20260905215246 | 100 | 94 | 5.0 | 7.0 | 0.00 | 7.38 | 0.00 | 43 | 1014.4 |
| 20260905214248 | 101 | 150 | 5.0 | 6.0 | 0.00 | 7.38 | 0.00 | 40 | 1014.3 |
| 20260905213250 | 100 | 135 | 4.0 | 5.0 | 0.00 | 7.38 | 0.00 | 45 | 1014.4 |
| 20260905212313 | 100 | 187 | 7.0 | 8.0 | 0.00 | 7.38 | 0.00 | 45 | 1014.4 |
| 20260905211255 | 101 | 165 | 6.0 | 8.0 | 0.00 | 7.38 | 0.00 | 42 | 1014.6 |
| 20260905210257 | 104 | 148 | 6.0 | 8.0 | 0.00 | 7.38 | 0.00 | 40 | 1014.6 |
| 20260905205319 | 104 | 203 | 5.0 | 7.0 | 0.00 | 7.38 | 0.00 | 40 | 1014.6 |
| 20260905204301 | 103 | 175 | 6.0 | 7.0 | 0.00 | 7.38 | 0.00 | 41 | 1014.8 |
| 20260905203245 | 102 | 171 | 6.0 | 10.0 | 0.00 | 7.38 | 0.00 | 41 | 1014.8 |
| 20260905202247 | 102 | 150 | 3.0 | 6.0 | 0.00 | 7.38 | 0.00 | 41 | 1014.8 |
| 20260905201249 | 103 | 145 | 4.0 | 7.0 | 0.00 | 7.38 | 0.00 | 40 | 1014.9 |
| 20260905200251 | 104 | 131 | 4.0 | 5.0 | 0.00 | 7.38 | 0.00 | 39 | 1014.9 |
| 20260905195254 | 106 | 71 | 5.0 | 8.0 | 0.00 | 7.38 | 0.00 | 38 | 1014.9 |
| 20260905194250 | 105 | 2.0 | 4.0 | 0.00 | 7.38 | 0.00 | 41 | 1015.1 | |
| 20260905193246 | 0 | 123 | 5.0 | 6.0 | 0.00 | 7.38 | 0.00 | 1015.3 | |
| 20260905192340 | 103 | 92 | 5.0 | 7.0 | 0.00 | 7.38 | 0.00 | 42 | 1015.6 |
| 20260905191342 | 0 | 0.0 | 0.0 | 0.00 | 7.38 | 0.00 | 1015.7 | ||
| 20260905190249 | 104 | 75 | 5.0 | 6.0 | 0.00 | 7.38 | 0.00 | 40 | 1015.6 |
| 20260905185248 | 0 | 108 | 4.0 | 5.0 | 0.00 | 7.38 | 0.00 | 1015.6 | |
| 20260905184250 | 0 | 68 | 6.0 | 6.0 | 0.00 | 7.38 | 0.00 | 1016.1 | |
| 20260905183253 | 0 | 106 | 6.0 | 6.0 | 0.00 | 7.38 | 0.00 | 1016.1 | |
| 20260905182255 | 103 | 91 | 5.0 | 6.0 | 0.00 | 7.38 | 0.00 | 45 | 1016.4 |
| 20260905181257 | 101 | 22 | 2.0 | 4.0 | 0.00 | 7.38 | 0.00 | 48 | 1016.4 |
| 20260905180258 | 102 | 102 | 5.0 | 6.0 | 0.00 | 7.38 | 0.00 | 48 | 1016.4 |
| 20260905175301 | 0 | 158 | 2.0 | 2.0 | 0.00 | 7.38 | 0.00 | 1016.4 | |
| 20260905174245 | 0 | 0.0 | 0.0 | 0.00 | 7.38 | 0.00 | 1016.4 | ||
| 20260905173247 | 100 | 121 | 3.0 | 4.0 | 0.00 | 7.38 | 0.00 | 51 | 1016.4 |
| 20260905172330 | 99 | 169 | 2.0 | 3.0 | 0.00 | 7.38 | 0.00 | 52 | 1016.7 |
| 20260905171251 | 99 | 58 | 3.0 | 4.0 | 0.00 | 7.38 | 0.00 | 52 | 1016.7 |
| 20260905170248 | 99 | 343 | 2.0 | 3.0 | 0.00 | 7.38 | 0.00 | 53 | 1016.8 |
| 20260905165256 | 98 | 57 | 5.0 | 6.0 | 0.00 | 7.38 | 0.00 | 54 | 1016.9 |
| 20260905164258 | 97 | 203 | 1.0 | 2.0 | 0.00 | 7.38 | 0.00 | 55 | 1017.1 |
| 20260905163301 | 96 | 101 | 4.0 | 6.0 | 0.00 | 7.38 | 0.00 | 56 | 1017.2 |
| 20260905162322 | 96 | 98 | 3.0 | 4.0 | 0.00 | 7.38 | 0.00 | 56 | 1017.2 |
| 20260905161246 | 96 | 81 | 4.0 | 5.0 | 0.00 | 7.38 | 0.00 | 56 | 1017.4 |
| 20260905160249 | 95 | 135 | 2.0 | 3.0 | 0.00 | 7.38 | 0.00 | 57 | 1017.4 |
| 20260905155331 | 94 | 90 | 2.0 | 2.0 | 0.00 | 7.38 | 0.00 | 59 | 1017.4 |
| 20260905154255 | 94 | 82 | 3.0 | 4.0 | 0.00 | 7.38 | 0.00 | 59 | 1017.4 |
| 20260905153255 | 94 | 80 | 4.0 | 5.0 | 0.00 | 7.38 | 0.00 | 58 | 1017.4 |
| 20260905152257 | 93 | 90 | 3.0 | 5.0 | 0.00 | 7.38 | 0.00 | 60 | 1017.4 |
| 20260905151300 | 92 | 103 | 2.0 | 3.0 | 0.00 | 7.38 | 0.00 | 60 | 1017.4 |
| 20260905150302 | 91 | 53 | 4.0 | 5.0 | 0.00 | 7.38 | 0.00 | 62 | 1017.4 |
| 20260905145246 | 91 | 45 | 4.0 | 5.0 | 0.00 | 7.38 | 0.00 | 63 | 1017.2 |
| 20260905144248 | 90 | 60 | 3.0 | 5.0 | 0.00 | 7.38 | 0.00 | 64 | 1017.2 |
| 20260905143310 | 89 | 111 | 3.0 | 4.0 | 0.00 | 7.38 | 0.00 | 66 | 1017.2 |
| 20260905142246 | 88 | 81 | 1.0 | 3.0 | 0.00 | 7.38 | 0.00 | 69 | 1017.4 |
| 20260905141254 | 87 | 32 | 3.0 | 4.0 | 0.00 | 7.38 | 0.00 | 71 | 1017.4 |
| 20260905140256 | 86 | 61 | 1.0 | 2.0 | 0.00 | 7.38 | 0.00 | 71 | 1017.3 |
| 20260905135258 | 86 | 74 | 2.0 | 3.0 | 0.00 | 7.38 | 0.00 | 71 | 1017.2 |
| 20260905134302 | 85 | 45 | 0.0 | 2.0 | 0.00 | 7.38 | 0.00 | 72 | 1017.2 |
| 20260905133301 | 85 | 0.0 | 0.0 | 0.00 | 7.38 | 0.00 | 72 | 1017.1 | |
| 20260905132246 | 86 | 0.0 | 0.0 | 0.00 | 7.38 | 0.00 | 70 | 1017.2 | |
| 20260905131248 | 86 | 0.0 | 0.0 | 0.00 | 7.38 | 0.00 | 72 | 1017.1 | |
| 20260905130250 | 86 | 0.0 | 0.0 | 0.00 | 7.38 | 0.00 | 72 | 1017.0 | |
| 20260905125253 | 86 | 0.0 | 0.0 | 0.00 | 7.38 | 0.00 | 72 | 1017.0 | |
| 20260905124254 | 84 | 0.0 | 0.0 | 0.00 | 7.38 | 0.00 | 74 | 1016.9 | |
| 20260905123256 | 83 | 0.0 | 0.0 | 0.00 | 7.38 | 0.00 | 76 | 1016.7 | |
| 20260905122259 | 81 | 0.0 | 0.0 | 0.00 | 7.38 | 0.00 | 80 | 1016.7 | |
| 20260905121255 | 80 | 0.0 | 0.0 | 0.00 | 7.38 | 0.00 | 82 | 1016.6 | |
| 20260905120245 | 78 | 0.0 | 0.0 | 0.00 | 7.38 | 0.00 | 84 | 1016.5 | |
| 20260905115328 | 79 | 0.0 | 0.0 | 0.00 | 7.38 | 0.00 | 84 | 1016.5 | |
| 20260905114250 | 78 | 0.0 | 0.0 | 0.00 | 7.38 | 0.00 | 84 | 1016.2 | |
| 20260905113312 | 78 | 0.0 | 0.0 | 0.00 | 7.38 | 0.00 | 85 | 1016.2 | |
| 20260905112254 | 78 | 0.0 | 0.0 | 0.00 | 7.38 | 0.00 | 85 | 1016.1 | |
| 20260905111311 | 78 | 0.0 | 0.0 | 0.00 | 7.38 | 0.00 | 84 | 1016.0 | |
| 20260905110253 | 78 | 0.0 | 0.0 | 0.00 | 7.38 | 0.00 | 83 | 1016.0 | |
| 20260905105255 | 78 | 0.0 | 0.0 | 0.00 | 7.38 | 0.00 | 83 | 1016.1 | |
| 20260905104257 | 79 | 0.0 | 0.0 | 0.00 | 7.38 | 0.00 | 83 | 1016.1 | |
| 20260905103320 | 79 | 0.0 | 0.0 | 0.00 | 7.38 | 0.00 | 83 | 1016.0 | |
| 20260905102316 | 79 | 0.0 | 0.0 | 0.00 | 7.38 | 0.00 | 83 | 1016.2 | |
| 20260905101339 | 79 | 0.0 | 0.0 | 0.00 | 7.38 | 0.00 | 84 | 1016.2 | |
| 20260905100341 | 79 | 0.0 | 0.0 | 0.00 | 7.38 | 0.00 | 84 | 1016.1 | |
| 20260905095305 | 79 | 0.0 | 0.0 | 0.00 | 7.38 | 0.00 | 83 | 1016.1 | |
| 20260905094247 | 79 | 0.0 | 0.0 | 0.00 | 7.38 | 0.00 | 82 | 1016.1 | |
| 20260905093249 | 80 | 0.0 | 0.0 | 0.00 | 7.38 | 0.00 | 82 | 1016.1 | |
| 20260905092251 | 80 | 0.0 | 0.0 | 0.00 | 7.38 | 0.00 | 81 | 1016.2 | |
| 20260905091247 | 80 | 0.0 | 0.0 | 0.00 | 7.38 | 0.00 | 81 | 1016.2 | |
| 20260905090255 | 81 | 0.0 | 0.0 | 0.00 | 7.38 | 0.00 | 81 | 1016.2 | |
| 20260905085317 | 81 | 0.0 | 0.0 | 0.00 | 7.38 | 0.00 | 82 | 1016.2 | |
| 20260905084259 | 81 | 0.0 | 0.0 | 0.00 | 7.38 | 0.00 | 82 | 1016.4 | |
| 20260905083303 | 81 | 0.0 | 0.0 | 0.00 | 7.38 | 0.00 | 81 | 1016.4 | |
| 20260905082343 | 82 | 0.0 | 0.0 | 0.00 | 7.38 | 0.00 | 81 | 1016.4 | |
| 20260905081307 | 82 | 0.0 | 0.0 | 0.00 | 7.38 | 0.00 | 80 | 1016.5 | |
| 20260905080249 | 82 | 0.0 | 0.0 | 0.00 | 7.38 | 0.00 | 80 | 1016.5 | |
| 20260905075251 | 82 | 0.0 | 0.0 | 0.00 | 7.38 | 0.00 | 80 | 1016.5 | |
| 20260905074253 | 82 | 0.0 | 0.0 | 0.00 | 7.38 | 0.00 | 79 | 1016.5 | |
| 20260905073255 | 82 | 0.0 | 0.0 | 0.00 | 7.38 | 0.00 | 78 | 1016.6 | |
| 20260905072257 | 82 | 0.0 | 0.0 | 0.00 | 7.38 | 0.00 | 78 | 1016.7 | |
| 20260905071259 | 82 | 0.0 | 0.0 | 0.00 | 7.38 | 0.00 | 77 | 1016.7 | |
| 20260905070255 | 82 | 0.0 | 0.0 | 0.00 | 7.38 | 0.00 | 77 | 1016.7 | |
| 20260905065245 | 83 | 0.0 | 0.0 | 0.00 | 7.38 | 0.00 | 77 | 1016.6 | |
| 20260905064247 | 82 | 0.0 | 0.0 | 0.00 | 7.38 | 0.00 | 77 | 1016.6 | |
| 20260905063251 | 83 | 0.0 | 0.0 | 0.00 | 7.38 | 0.00 | 76 | 1016.7 | |
| 20260905062251 | 83 | 0.0 | 0.0 | 0.00 | 7.38 | 0.00 | 76 | 1016.9 | |
| 20260905061253 | 83 | 0.0 | 0.0 | 0.00 | 7.38 | 0.00 | 76 | 1016.9 | |
| 20260905060336 | 83 | 0.0 | 0.0 | 0.00 | 7.38 | 0.00 | 76 | 1016.9 | |
| 20260905055258 | 83 | 0.0 | 0.0 | 0.00 | 7.38 | 0.00 | 75 | 1016.9 | |
| 20260905054320 | 84 | 0.0 | 0.0 | 0.00 | 7.38 | 0.00 | 73 | 1016.9 | |
| 20260905053302 | 84 | 0.0 | 0.0 | 0.00 | 7.38 | 0.00 | 73 | 1016.9 | |
| 20260905052245 | 84 | 0.0 | 0.0 | 0.00 | 7.38 | 0.00 | 73 | 1016.7 | |
| 20260905051248 | 84 | 0.0 | 0.0 | 0.00 | 7.38 | 0.00 | 72 | 1016.7 | |
| 20260905050250 | 84 | 0.0 | 0.0 | 0.00 | 7.38 | 0.00 | 72 | 1016.6 | |
| 20260905045252 | 84 | 0.0 | 0.0 | 0.00 | 7.38 | 7.38 | 72 | 1016.6 | |
| 20260905044254 | 84 | 0.0 | 0.0 | 0.00 | 7.38 | 7.38 | 72 | 1016.7 | |
| 20260905043256 | 84 | 0.0 | 0.0 | 0.00 | 7.38 | 7.38 | 72 | 1016.7 | |
| 20260905042252 | 85 | 0.0 | 0.0 | 0.00 | 7.38 | 7.38 | 72 | 1016.6 | |
| 20260905041248 | 85 | 0.0 | 0.0 | 0.00 | 7.38 | 7.38 | 71 | 1016.5 | |
| 20260905040322 | 85 | 0.0 | 0.0 | 0.00 | 7.38 | 7.38 | 70 | 1016.5 | |
| 20260905035246 | 86 | 0.0 | 0.0 | 0.00 | 7.38 | 7.38 | 70 | 1016.5 | |
| 20260905034248 | 86 | 0.0 | 0.0 | 0.00 | 7.38 | 7.38 | 69 | 1016.5 | |
| 20260905033250 | 86 | 0.0 | 0.0 | 0.00 | 7.38 | 7.38 | 69 | 1016.6 | |
| 20260905032252 | 87 | 0.0 | 0.0 | 0.00 | 7.38 | 7.38 | 67 | 1016.7 | |
| 20260905031255 | 87 | 0.0 | 0.0 | 0.00 | 7.38 | 7.38 | 67 | 1016.7 | |
| 20260905030257 | 87 | 0.0 | 0.0 | 0.00 | 7.38 | 7.38 | 66 | 1016.7 | |
| 20260905025259 | 88 | 0.0 | 0.0 | 0.00 | 7.38 | 7.38 | 66 | 1016.7 | |
| 20260905024301 | 88 | 0.0 | 0.0 | 0.00 | 7.38 | 7.38 | 65 | 1016.7 | |
| 20260905023245 | 89 | 0.0 | 0.0 | 0.00 | 7.38 | 7.38 | 64 | 1016.5 | |
| 20260905022328 | 89 | 0.0 | 0.0 | 0.00 | 7.38 | 7.38 | 64 | 1016.4 | |
| 20260905021249 | 89 | 0.0 | 0.0 | 0.00 | 7.38 | 7.38 | 63 | 1016.4 | |
| 20260905020312 | 90 | 0.0 | 0.0 | 0.00 | 7.38 | 7.38 | 62 | 1016.4 | |
| 20260905015254 | 91 | 0.0 | 0.0 | 0.00 | 7.38 | 7.38 | 61 | 1016.2 | |
| 20260905014249 | 91 | 0.0 | 0.0 | 0.00 | 7.38 | 7.38 | 61 | 1016.0 | |
| 20260905013245 | 91 | 0.0 | 0.0 | 0.00 | 7.38 | 7.38 | 60 | 1015.9 |